GEFSGL_con_probscp_192.txt.gz
Probability
47 46 44 40 37 35 33 31 28 24 21 20 19 17 14 13 16 17 16 13 11 8 8 9 8 7 6 6 6 5 4 3 2 2 2 1 0 0 1 1 1 1 1
49 49 46 41 37 35 33 30 27 24 21 18 18 17 15 14 16 16 14 12 11 9 9 8 7 7 6 6 6 5 4 3 2 2 1 0 0 0 1 1 1 1 1
51 51 48 43 39 36 34 32 27 23 19 17 18 19 19 16 14 13 11 10 10 9 8 6 6 6 6 5 4 4 3 3 3 1 0 0 0 0 1 1 0 0 1
52 52 50 46 42 38 36 34 29 24 20 19 20 20 18 14 11 9 9 10 9 8 6 4 4 4 4 3 3 3 3 3 2 1 0 0 0 0 0 0 0 0 0
53 53 52 48 43 37 34 32 30 26 22 21 21 19 14 9 6 5 7 9 9 7 6 4 3 3 2 1 1 1 2 2 1 0 0 0 0 0 0 0 0 0 0
54 52 51 47 40 33 30 29 27 26 24 22 20 16 11 5 2 2 3 6 6 6 5 5 4 3 1 0 0 0 1 1 0 0 0 0 0 0 0 0 0 0 0
50 49 48 45 36 28 25 24 23 22 21 19 17 14 9 4 2 0 1 2 3 4 4 4 3 2 1 0 0 0 0 0 0 0 0 0 0 0 0 0 0 0 0
47 46 45 41 34 26 22 21 20 19 18 17 15 12 8 4 1 0 0 1 3 4 4 2 1 1 0 0 0 0 0 0 0 0 0 0 0 0 0 0 0 0 0
46 46 44 39 31 26 23 21 20 19 18 17 15 12 9 5 1 0 1 2 4 5 3 1 0 0 0 0 0 0 0 0 0 0 0 0 0 0 0 0 0 0 0
48 47 43 37 30 27 25 22 20 20 19 17 15 12 10 6 2 0 1 2 4 4 2 0 0 0 0 0 0 0 0 0 0 0 0 0 0 0 0 0 0 0 0
49 47 42 35 28 25 24 21 19 19 19 16 13 11 10 7 3 0 1 2 3 2 1 0 0 0 0 0 0 0 0 0 0 0 0 0 0 0 0 0 0 0 0
46 43 38 32 26 23 23 21 19 19 19 16 12 10 10 8 3 0 0 1 1 1 0 0 0 0 0 0 0 0 0 0 0 0 0 0 0 0 0 0 0 0 0
41 36 30 26 23 22 22 21 20 19 18 15 12 11 11 9 5 1 0 0 0 0 0 0 0 0 0 0 0 0 0 0 0 0 0 0 0 0 0 0 0 0 0
35 30 24 22 21 21 21 21 20 19 17 16 14 12 12 11 6 2 0 0 0 0 0 0 0 0 0 0 0 0 0 0 0 0 0 0 0 0 0 0 0 0 0
29 26 22 21 22 22 20 18 17 16 14 13 12 12 11 10 6 2 0 0 0 0 0 0 0 0 0 0 0 0 0 0 0 0 0 0 0 0 0 0 0 0 0
26 24 21 22 23 22 19 16 12 10 8 7 7 8 7 5 2 1 0 0 0 0 0 0 0 0 0 0 0 0 0 0 0 0 0 0 0 0 0 0 0 0 0
23 21 20 20 21 20 18 15 12 8 5 4 3 3 3 1 0 0 0 0 0 0 0 0 0 0 0 0 0 0 0 0 0 0 0 0 0 0 0 0 0 0 0
20 19 18 18 17 17 17 15 12 10 8 6 3 1 1 0 0 0 0 0 0 0 0 0 0 0 0 0 0 0 0 0 0 0 0 0 0 0 0 0 0 0 0
18 17 16 16 14 14 15 13 11 9 9 8 5 2 0 0 0 0 0 0 0 0 0 0 0 0 0 0 0 0 0 0 0 0 0 0 0 0 0 0 0 0 0
16 14 14 13 12 12 13 11 9 8 8 7 5 3 1 0 0 0 0 0 0 0 0 0 0 0 0 0 0 0 0 0 0 0 0 0 0 0 0 0 0 0 0
11 10 10 10 11 11 11 10 8 7 6 5 4 3 1 0 0 0 0 0 0 0 0 1 1 1 0 0 0 0 0 0 0 0 0 0 0 0 0 0 0 0 0
7 7 8 9 10 10 9 9 8 7 6 5 4 2 1 0 0 1 1 1 1 1 1 1 2 2 1 0 0 0 0 0 0 0 0 0 0 0 0 0 0 0 0
6 6 7 8 9 8 8 8 7 6 6 5 3 1 0 1 2 3 3 4 4 3 3 3 3 2 1 0 0 0 0 0 0 0 0 0 0 0 0 0 0 0 0
5 5 6 6 7 7 7 7 7 5 4 3 1 0 1 2 4 6 6 6 5 5 4 3 3 2 1 0 0 0 0 0 0 0 0 0 0 0 0 0 0 0 0
2 3 4 4 5 6 6 7 7 6 3 2 0 0 1 4 6 7 7 6 4 4 4 3 1 1 0 0 0 0 0 0 0 0 0 0 0 0 0 0 0 0 0
0 1 3 4 5 6 6 7 7 6 4 2 1 0 1 4 6 7 7 6 3 3 3 2 0 0 0 0 0 0 0 0 0 0 0 0 0 0 0 0 0 0 0

GEFSGL_con_probscp_198.txt.gz
Probability
32 30 27 27 25 22 20 19 16 14 13 14 12 10 7 5 6 7 7 6 5 4 4 3 3 2 1 2 3 3 3 2 2 1 0 0 0 0 0 0 0 0 0
34 32 31 30 28 25 22 20 17 14 13 13 11 9 8 7 8 8 8 7 5 4 5 5 4 3 2 3 3 3 3 1 1 0 0 0 0 0 0 0 0 0 0
37 36 35 34 32 28 25 22 19 15 13 13 11 10 9 9 9 10 9 7 5 4 5 5 4 3 3 3 3 3 2 1 0 0 0 0 0 0 0 0 0 0 0
42 40 37 34 32 29 27 24 19 15 13 13 12 10 10 9 9 9 8 7 5 4 4 3 3 2 2 2 2 1 1 0 0 0 0 0 0 0 0 0 0 0 0
47 43 37 32 28 26 25 22 16 13 13 12 10 9 8 7 6 5 5 5 4 3 3 2 1 1 1 1 1 0 0 0 0 0 0 0 0 0 0 0 0 0 0
49 45 38 29 24 23 20 18 14 12 12 11 9 6 5 4 3 2 2 1 1 1 2 1 0 0 0 0 0 0 0 0 0 0 0 0 0 0 0 0 0 0 0
46 45 38 28 21 19 17 16 15 14 12 10 7 5 4 3 3 1 0 0 0 0 0 0 0 0 0 0 0 0 0 0 0 0 0 0 0 0 0 0 0 0 0
41 40 34 25 19 17 16 16 15 13 11 8 6 5 4 3 3 2 0 0 0 0 0 0 0 0 0 0 0 0 0 0 0 0 0 0 0 0 0 0 0 0 0
34 33 29 23 19 17 17 16 15 12 10 8 6 6 4 3 3 1 0 0 0 0 0 0 0 0 0 0 0 0 0 0 0 0 0 0 0 0 0 0 0 0 0
27 26 24 21 18 18 17 16 14 13 10 8 7 6 5 4 3 1 0 0 0 0 0 0 0 0 0 0 0 0 0 0 0 0 0 0 0 0 0 0 0 0 0
23 22 21 19 17 16 16 14 14 13 11 9 8 7 6 5 3 1 0 0 0 0 0 0 0 0 0 0 0 0 0 0 0 0 0 0 0 0 0 0 0 0 0
22 21 18 16 15 14 13 13 13 14 13 11 10 8 7 6 4 1 0 0 0 0 0 0 0 0 0 0 0 0 0 0 0 0 0 0 0 0 0 0 0 0 0
22 19 15 12 11 11 11 11 13 14 14 12 10 9 7 6 5 2 0 0 0 0 0 0 0 0 0 0 0 0 0 0 0 0 0 0 0 0 0 0 0 0 0
20 16 11 9 9 10 9 10 11 13 14 13 12 10 9 7 4 1 0 0 0 0 0 0 0 0 0 0 0 0 0 0 0 0 0 0 0 0 0 0 0 0 0
17 13 9 9 9 8 8 8 9 11 12 13 12 11 9 6 4 1 0 0 0 0 0 0 0 0 0 0 0 0 0 0 0 0 0 0 0 0 0 0 0 0 0
15 11 7 7 7 7 8 8 7 7 7 8 8 8 7 5 3 1 0 0 0 0 0 0 0 0 0 0 0 0 0 0 0 0 0 0 0 0 0 0 0 0 0
12 9 6 5 6 7 8 8 6 4 3 3 3 4 4 4 3 1 0 0 0 0 0 0 0 0 0 0 0 0 0 0 0 0 0 0 0 0 0 0 0 0 0
11 8 5 4 5 7 8 8 6 4 3 2 1 1 2 2 2 1 0 0 0 0 0 0 0 0 0 0 0 0 0 0 0 0 0 0 0 0 0 0 0 0 0
9 7 5 4 4 6 7 8 6 4 3 3 1 1 1 1 1 0 0 0 0 0 0 0 0 0 0 0 0 0 0 0 0 0 0 0 0 0 0 0 0 0 0
7 6 5 4 4 5 7 7 6 5 4 3 3 2 1 1 1 0 0 0 0 0 0 0 0 0 0 0 0 0 0 0 0 0 0 0 0 0 0 0 0 0 0
7 7 5 4 4 6 7 7 6 6 4 3 3 2 1 2 2 1 0 0 0 0 0 0 0 0 0 0 0 0 0 0 0 0 0 0 0 0 0 0 0 0 0
7 6 5 3 4 6 7 7 6 5 4 3 2 1 1 2 2 1 0 0 0 0 0 0 0 0 0 0 0 0 0 0 0 0 0 0 0 0 0 0 0 0 0
5 5 4 3 3 4 5 5 4 4 3 2 1 0 0 1 1 0 0 0 0 0 0 0 0 0 0 0 0 0 0 0 0 0 0 0 0 0 0 0 0 0 0
3 3 2 2 2 1 2 3 3 3 3 1 0 0 0 0 0 0 0 0 0 0 0 0 0 0 0 0 0 0 0 0 0 0 0 0 0 0 0 0 0 0 0
1 1 1 1 1 0 0 1 3 3 3 1 0 0 0 0 0 0 0 0 0 0 0 0 0 0 0 0 0 0 0 0 0 0 0 0 0 0 0 0 0 0 0
0 0 0 0 0 0 0 1 2 3 3 2 1 0 0 0 0 0 0 0 0 0 0 0 0 0 0 0 0 0 0 0 0 0 0 0 0 0 0 0 0 0 0

GEFSGL_con_probscp_204.txt.gz
Probability
11 11 11 12 14 14 14 14 14 13 12 11 11 10 10 9 7 6 6 6 7 7 6 5 3 2 1 2 3 3 3 3 3 3 2 1 0 0 0 0 0 0 0
11 12 13 15 15 14 15 16 16 15 14 13 12 10 9 8 8 7 7 7 7 7 5 4 3 3 2 3 3 3 3 3 3 3 3 1 1 0 0 0 0 0 0
12 13 15 17 16 14 15 17 18 17 15 14 12 11 9 8 9 9 8 7 7 7 6 4 3 3 3 3 3 3 3 2 2 2 2 2 1 0 0 0 0 0 0
14 17 19 19 17 16 15 16 17 15 13 12 11 10 9 8 9 8 7 7 6 6 6 5 4 3 3 2 2 2 1 1 1 1 1 1 1 0 0 0 0 0 0
17 19 21 19 18 16 14 14 14 13 11 10 10 10 9 8 7 7 7 6 6 6 6 4 3 2 1 1 1 1 0 0 0 0 0 0 0 0 0 0 0 0 0
17 18 18 17 16 14 13 12 12 12 10 9 9 9 8 7 6 6 6 6 6 5 5 3 2 1 0 0 0 0 0 0 0 0 0 0 0 0 0 0 0 0 0
17 17 16 15 13 12 12 12 12 12 10 9 9 8 7 6 4 4 4 4 4 3 2 2 1 0 0 0 0 0 0 0 0 0 0 0 0 0 0 0 0 0 0
19 19 16 13 10 10 11 12 12 12 11 9 8 7 6 5 4 3 3 3 3 1 0 0 0 0 0 0 0 0 0 0 0 0 0 0 0 0 0 0 0 0 0
22 20 17 14 10 9 11 13 12 13 12 10 8 6 6 5 4 3 2 2 2 1 0 0 0 0 0 0 0 0 0 0 0 0 0 0 0 0 0 0 0 0 0
20 17 16 14 11 10 10 11 12 13 12 11 8 7 7 6 4 2 1 1 1 0 0 0 0 0 0 0 0 0 0 0 0 0 0 0 0 0 0 0 0 0 0
16 14 13 12 11 9 7 8 9 11 11 10 8 8 7 6 3 1 0 0 0 0 0 0 0 0 0 0 0 0 0 0 0 0 0 0 0 0 0 0 0 0 0
15 13 10 9 7 5 5 4 6 8 8 8 7 6 6 5 3 1 0 0 0 0 0 0 0 0 0 0 0 0 0 0 0 0 0 0 0 0 0 0 0 0 0
14 11 8 6 5 3 2 3 3 4 5 5 4 4 4 5 3 1 1 1 0 0 0 0 0 0 0 0 0 0 0 0 0 0 0 0 0 0 0 0 0 0 0
9 7 6 5 5 3 2 2 2 2 2 3 3 4 4 4 3 3 2 2 1 1 1 0 0 0 0 0 0 0 0 0 0 0 0 0 0 0 0 0 0 0 0
5 4 3 4 4 3 3 2 2 2 2 2 3 4 4 3 3 3 3 3 3 2 1 0 0 0 0 0 0 0 0 0 0 0 0 0 0 0 0 0 0 0 0
6 5 4 3 3 3 3 3 1 1 1 1 1 2 2 1 2 1 1 2 2 2 2 1 0 0 0 0 0 0 0 0 0 0 0 0 0 0 0 0 0 0 0
9 8 6 4 3 3 3 2 1 0 0 0 0 0 0 0 0 0 0 1 1 2 2 2 1 0 0 0 0 0 0 0 0 0 0 0 0 0 0 0 0 0 0
10 9 7 5 4 3 3 2 1 0 0 0 0 0 0 0 0 0 0 0 1 2 3 3 2 1 0 0 0 0 0 0 0 0 0 0 0 0 0 0 0 0 0
9 8 6 4 3 3 2 1 0 0 0 0 0 0 0 0 1 1 1 1 2 3 3 3 3 2 0 0 0 0 0 0 0 0 0 0 0 0 0 0 0 0 0
7 7 5 4 3 3 1 0 0 0 0 0 0 0 0 1 2 2 2 3 3 3 3 3 3 2 0 0 0 0 0 0 0 0 0 0 0 0 0 0 0 0 0
6 5 4 3 3 2 1 0 0 0 0 0 0 0 0 1 2 3 3 3 3 3 3 3 3 2 1 0 0 0 0 0 0 0 0 0 0 0 0 0 0 0 0
6 4 3 3 3 2 1 0 0 0 0 0 0 0 0 0 1 2 3 3 3 3 3 3 3 2 1 0 0 0 0 0 0 0 0 0 0 0 0 0 0 0 0
4 3 3 3 3 3 1 1 0 0 0 0 0 0 0 0 0 1 3 3 3 3 3 3 3 1 0 0 0 0 0 0 0 0 0 0 0 0 0 0 0 0 0
2 2 2 3 3 3 2 1 0 0 0 0 0 0 0 0 0 1 2 3 3 3 3 3 2 1 0 0 0 0 0 0 0 0 0 0 0 0 0 0 0 0 0
1 0 1 1 2 2 2 1 0 0 0 0 0 0 0 0 0 1 2 3 3 3 3 2 1 0 0 0 0 0 0 0 0 0 0 0 0 0 0 0 0 0 0
0 0 0 0 1 1 1 0 0 0 0 0 0 0 0 0 0 0 1 3 3 3 2 1 0 0 0 0 0 0 0 0 0 0 0 0 0 0 0 0 0 0 0

GEFSGL_con_probscp_210.txt.gz
Probability
17 19 21 21 20 19 18 17 17 17 16 16 15 13 12 12 11 11 11 12 13 13 12 10 9 10 9 9 10 11 11 9 6 5 6 6 4 3 3 3 3 3 3
17 19 21 21 21 21 20 19 18 18 17 17 16 14 12 11 11 11 12 13 13 13 12 10 8 8 9 10 11 12 11 9 6 5 6 6 4 3 3 3 3 3 3
18 20 21 23 24 23 22 21 20 19 17 16 15 14 11 10 10 11 12 13 13 12 10 9 7 7 8 10 12 12 11 9 7 6 6 6 4 3 3 2 2 2 2
20 21 22 24 24 22 19 19 19 18 15 13 12 12 11 10 10 10 11 12 12 11 10 8 7 6 8 9 10 10 10 9 7 6 6 5 4 3 2 1 1 3 3
26 24 23 23 23 20 17 17 18 17 15 13 11 11 11 10 9 8 9 10 10 10 9 9 7 6 6 6 6 6 8 8 7 6 6 5 3 2 1 0 2 4 5
31 28 25 24 23 21 19 18 19 19 17 15 13 11 11 9 7 6 6 8 9 10 10 9 8 6 4 3 2 2 4 5 5 4 3 3 3 2 1 1 3 5 6
32 31 28 26 25 24 22 22 22 23 22 19 15 12 10 9 7 5 5 7 9 10 10 9 8 5 3 2 1 1 2 2 2 1 1 2 2 2 1 1 2 3 4
32 31 30 28 27 26 25 24 24 24 24 21 17 13 11 9 6 4 4 6 9 9 9 8 7 5 3 2 2 2 2 2 1 0 0 1 1 1 1 1 1 1 1
34 32 29 28 27 26 26 25 24 23 22 19 16 13 10 7 4 2 3 5 7 7 7 6 6 4 2 1 2 3 4 3 1 0 0 0 0 0 0 0 0 0 0
38 34 29 26 25 26 26 26 24 23 21 17 13 11 9 6 3 1 2 5 6 5 4 4 4 3 1 0 2 3 4 3 1 0 0 0 0 0 0 0 0 1 1
40 36 30 27 25 25 26 26 26 25 22 16 10 7 7 6 4 2 2 3 4 3 3 3 3 2 0 0 1 3 3 1 1 0 0 0 0 0 0 0 0 1 1
41 37 31 27 24 23 24 24 24 23 20 14 8 5 5 5 5 3 3 2 2 1 2 3 3 1 0 0 1 1 1 0 0 0 0 0 0 0 0 0 0 0 1
42 37 31 27 25 23 21 19 18 18 14 9 6 4 4 4 4 3 2 2 1 2 2 3 2 1 0 0 0 0 0 0 0 0 0 0 0 0 0 0 0 0 0
41 35 29 25 24 22 17 13 13 12 9 6 4 4 4 4 4 3 2 2 2 2 2 3 3 1 0 0 0 0 0 0 0 0 0 0 1 0 0 0 0 0 0
37 31 24 21 20 18 14 10 8 7 6 4 4 3 4 4 3 3 2 2 2 1 1 3 3 2 1 1 1 1 1 1 0 0 0 0 0 0 0 0 0 0 0
33 26 20 19 19 16 12 8 5 3 2 3 3 3 3 3 2 2 1 1 1 0 1 2 3 3 3 3 3 3 2 1 1 0 0 0 0 0 0 0 0 0 0
28 23 18 18 19 16 12 8 4 1 0 1 1 2 2 1 1 1 0 0 0 0 1 2 3 3 4 5 4 4 3 3 2 1 1 0 0 0 0 0 0 0 0
22 19 16 15 16 15 12 10 7 3 1 1 1 1 1 0 0 0 0 0 0 0 0 1 1 3 4 5 5 4 4 4 4 4 2 1 0 0 0 0 0 0 0
18 15 13 13 13 13 12 11 8 6 4 3 3 2 1 0 0 0 0 0 0 0 0 0 1 2 3 4 5 5 4 4 5 5 3 2 1 0 0 0 0 0 0
14 11 10 11 13 12 10 9 8 6 5 4 4 3 2 2 1 0 0 0 0 0 0 0 0 1 3 4 4 4 4 4 4 4 3 3 2 0 0 0 0 0 0
11 9 8 10 11 10 8 6 6 6 5 4 3 3 3 3 2 2 1 1 0 0 0 0 0 1 2 3 3 3 3 3 3 3 3 3 1 0 0 0 0 0 0
11 10 8 8 8 8 7 6 6 5 4 3 3 3 4 4 4 3 2 1 0 0 0 0 0 0 1 3 3 3 3 3 3 3 3 2 1 0 0 0 0 1 1
10 10 9 7 6 6 6 5 4 4 3 3 4 4 4 5 5 4 3 1 0 0 0 0 0 0 1 2 3 3 3 3 3 2 1 1 0 0 0 0 0 0 0
9 9 8 7 5 5 5 5 3 3 3 3 3 4 4 4 4 4 3 1 0 0 0 0 0 0 1 2 3 3 3 3 2 1 0 0 0 0 0 0 0 0 0
10 9 7 5 4 4 4 3 2 2 2 2 2 3 3 3 3 3 2 1 0 0 0 0 0 0 0 1 3 3 3 2 1 0 0 0 0 0 0 0 0 0 0
10 9 6 4 3 3 3 2 1 1 1 1 1 2 3 3 2 2 2 1 0 0 0 0 0 0 0 1 2 3 3 1 0 0 0 0 0 0 0 0 0 0 0

GEFSGL_con_probscp_216.txt.gz
Probability
38 39 40 40 38 35 32 33 35 35 35 31 27 24 23 22 19 16 15 14 13 12 13 13 12 13 16 17 16 14 14 12 9 7 5 4 5 6 5 4 4 3 2
41 42 44 43 41 38 36 35 34 34 33 30 26 23 23 21 19 17 17 16 14 12 12 12 12 13 16 16 15 14 14 12 10 8 5 4 4 6 6 5 3 3 2
46 47 49 47 44 41 39 36 32 30 30 29 26 24 24 24 21 18 18 17 15 13 12 11 11 13 14 14 13 14 13 12 11 9 6 4 5 6 6 4 2 2 2
50 51 52 50 46 42 40 35 31 29 29 28 26 24 25 24 20 16 16 16 15 14 12 11 10 11 11 10 10 11 12 11 10 9 7 6 6 6 5 3 1 0 1
53 52 52 51 47 41 37 34 31 29 29 29 29 26 24 20 16 14 13 14 14 13 11 10 9 8 8 7 7 8 9 8 8 7 7 6 6 5 4 2 1 1 1
55 54 51 49 45 38 33 31 30 30 30 31 31 29 25 18 12 10 11 12 12 10 8 7 6 6 6 6 5 5 5 5 6 6 5 5 5 4 3 2 2 3 2
58 56 52 48 44 38 33 30 29 30 30 31 32 31 25 17 9 7 8 10 10 8 7 5 5 5 5 5 5 4 4 4 4 4 4 3 3 3 2 2 2 2 2
61 59 53 48 46 41 36 32 31 31 30 29 30 29 24 15 7 4 6 8 8 7 6 5 5 5 4 3 3 3 4 4 2 2 2 2 1 1 1 1 1 0 0
61 60 55 49 47 44 39 36 35 34 30 27 27 27 22 14 6 3 3 4 6 6 6 6 7 6 3 1 1 3 3 3 2 2 1 1 0 0 1 1 1 0 0
60 59 56 52 50 47 43 40 39 36 30 25 24 25 20 13 5 1 1 3 4 5 7 8 8 6 3 0 1 3 4 4 3 2 1 1 0 0 0 0 1 0 0
58 58 56 52 50 48 45 43 40 36 31 26 24 22 19 12 5 1 1 3 4 5 8 9 9 5 2 0 1 3 4 4 4 4 2 1 1 1 1 1 1 1 1
59 58 55 50 46 46 45 42 39 34 31 28 25 23 19 13 6 2 1 1 3 6 9 9 7 4 1 0 1 2 3 3 5 5 3 2 1 2 3 3 2 2 2
59 58 54 49 46 45 45 41 36 32 31 29 26 24 21 16 11 5 2 1 1 4 6 6 4 2 0 0 1 1 1 3 5 5 4 2 3 4 5 4 3 3 3
57 56 52 46 43 44 43 37 31 29 28 26 24 22 22 18 13 9 5 2 1 2 2 2 2 1 0 1 2 2 2 3 4 5 4 3 4 6 6 4 3 3 3
53 51 46 39 37 38 36 30 23 19 18 17 17 17 17 14 10 6 5 3 3 1 1 1 1 0 0 2 3 4 5 5 5 5 4 4 6 7 7 6 5 3 2
49 45 39 34 32 31 30 25 16 10 7 7 7 9 8 6 3 2 2 2 3 2 1 2 2 1 0 1 3 5 6 6 7 6 6 6 6 6 7 7 6 4 3
44 39 33 29 27 27 28 25 18 10 5 3 2 2 2 1 0 0 0 1 1 1 1 3 3 2 1 1 2 3 4 6 7 6 6 6 7 6 7 8 7 4 3
37 33 28 25 24 25 26 25 20 15 11 7 4 2 0 0 0 0 0 0 0 0 1 2 3 3 3 2 2 2 3 5 5 5 5 6 7 7 7 7 6 4 3
31 28 25 23 21 22 22 19 17 16 13 11 8 4 1 0 0 0 0 0 0 0 1 2 3 4 3 3 3 2 2 3 4 4 5 6 6 6 5 5 4 3 2
27 23 20 18 17 16 16 15 14 14 11 10 10 7 2 0 0 0 0 1 1 1 1 1 3 4 4 3 3 2 1 1 2 3 4 5 4 4 3 3 3 3 3
21 19 16 14 13 12 13 14 13 13 10 9 10 8 3 0 1 2 1 1 1 1 1 1 2 3 4 3 3 1 0 0 1 3 3 4 3 3 3 3 3 3 3
16 15 13 12 11 11 12 13 13 12 10 8 8 6 3 1 2 3 3 3 2 1 0 0 1 2 3 3 3 1 1 1 1 2 3 3 3 3 3 3 3 3 3
11 12 12 11 10 11 11 11 11 11 10 8 7 5 3 2 3 3 4 4 4 2 1 1 1 2 2 3 3 2 2 2 2 3 3 3 3 3 3 3 3 3 3
7 10 12 11 10 11 10 9 9 9 9 8 6 6 5 4 4 4 4 5 6 5 3 1 1 1 1 2 2 3 3 3 3 3 4 3 3 3 3 3 3 3 3
6 8 10 10 10 10 9 9 10 9 9 8 7 6 6 6 5 5 5 6 7 6 4 3 2 1 1 2 3 3 3 2 2 3 4 4 3 3 3 3 3 3 2
6 7 8 10 10 8 9 11 12 11 10 9 8 6 6 6 7 6 6 6 6 5 4 3 2 1 0 1 3 3 2 1 1 2 4 5 4 3 3 3 3 2 1

GEFSGL_con_probscp_222.txt.gz
Probability
21 21 19 14 9 7 7 6 4 5 6 6 5 4 4 4 6 8 8 6 6 7 8 7 6 6 6 6 5 4 4 4 4 2 1 0 0 0 0 0 0 1 2
24 23 21 17 12 10 10 8 6 6 6 5 5 6 7 7 8 10 9 7 6 7 6 5 5 6 6 6 6 6 6 5 4 3 1 0 0 0 0 0 0 1 2
28 26 23 20 16 14 12 11 9 9 8 7 7 9 10 9 9 10 10 7 6 5 4 3 3 5 6 6 6 6 6 6 5 3 2 1 0 0 0 0 0 0 1
33 31 26 23 20 16 13 12 11 11 11 10 11 11 10 9 8 8 8 6 3 2 1 1 1 3 4 4 4 4 4 4 4 3 3 1 0 0 0 0 0 0 0
35 34 31 26 23 20 16 13 11 10 10 12 13 12 11 11 10 8 7 5 2 1 1 1 0 1 2 2 2 1 1 1 2 3 3 2 1 1 1 0 0 0 0
33 35 34 30 28 25 21 17 15 13 12 13 15 15 14 13 11 9 7 5 3 2 2 1 0 0 1 1 1 0 0 0 1 1 2 2 2 2 2 1 0 0 0
33 35 36 34 31 29 25 22 21 20 18 18 18 18 16 12 9 8 6 5 3 3 2 1 0 0 0 0 0 0 0 0 0 0 1 1 2 3 3 2 0 0 0
35 36 38 37 33 30 27 24 25 24 23 21 20 18 15 10 6 4 4 3 3 2 1 0 0 0 0 0 0 0 0 0 0 0 0 0 1 1 2 1 0 0 0
38 37 37 37 35 31 28 25 24 24 23 21 18 16 14 9 4 1 1 2 3 2 1 0 1 1 2 1 1 1 0 0 0 0 0 0 0 0 0 0 0 0 0
40 38 36 34 33 30 28 27 25 23 21 18 15 14 12 8 2 0 0 2 2 2 0 1 2 2 2 2 2 1 1 1 1 0 0 0 0 0 0 0 0 0 0
41 40 38 34 31 28 27 27 25 23 20 17 14 13 12 7 2 0 0 1 2 1 0 1 1 1 1 1 1 1 1 1 1 1 0 0 0 0 0 0 0 0 0
41 40 39 36 32 28 27 27 26 24 20 16 14 12 11 7 3 1 0 1 1 1 1 1 1 0 0 0 0 0 0 1 1 1 1 1 1 1 0 0 0 0 0
43 42 39 35 31 28 26 25 24 23 19 15 12 10 9 6 3 2 1 0 0 1 1 1 0 0 0 0 0 0 0 0 0 1 2 2 2 2 1 0 0 0 0
42 41 37 32 28 25 23 21 20 19 16 12 9 7 6 6 4 3 2 1 1 1 1 1 0 0 0 0 0 0 0 0 0 1 2 3 3 3 1 0 0 0 0
37 35 32 28 26 24 20 15 13 12 11 8 6 5 4 5 4 2 1 1 2 1 0 0 0 0 0 0 0 0 0 0 0 1 2 3 3 3 2 1 0 0 0
31 29 26 24 23 22 18 12 7 6 5 4 4 3 3 3 2 1 0 1 1 1 0 0 0 0 0 0 0 0 0 0 0 1 2 3 3 3 3 2 1 1 0
26 25 23 21 21 20 16 12 6 3 2 1 2 2 2 1 1 0 0 0 0 0 0 0 0 0 0 0 0 0 0 0 0 0 1 2 3 3 3 3 3 2 1
22 21 20 19 19 19 16 12 8 5 2 1 1 1 1 0 0 0 0 0 0 0 0 0 0 0 0 0 0 0 0 0 0 0 0 1 2 3 3 3 3 3 3
18 18 18 17 17 18 15 11 9 8 5 1 1 1 0 0 0 0 0 0 0 0 0 0 0 0 0 1 1 1 0 0 0 0 0 0 1 2 3 3 3 3 3
17 16 17 16 16 16 15 12 10 9 6 3 2 1 0 0 0 0 0 0 0 0 0 0 0 0 0 1 1 1 1 1 0 0 0 0 0 1 2 3 3 3 3
17 16 15 15 14 14 13 11 10 8 7 4 2 1 0 0 0 0 0 0 0 0 0 0 0 0 0 0 1 1 2 2 1 1 1 0 0 0 1 2 3 3 3
16 15 14 13 13 11 10 8 8 7 6 4 1 0 0 0 0 0 0 0 0 0 0 0 0 0 0 0 0 0 1 2 2 2 2 1 0 0 0 1 2 3 3
12 11 11 11 10 8 6 6 6 6 5 3 1 0 0 0 0 0 0 0 0 0 0 0 0 0 0 0 0 0 0 1 2 3 3 1 0 0 0 0 2 3 3
8 8 8 8 7 5 5 5 5 5 4 3 1 0 0 0 0 0 0 0 0 0 0 0 0 0 0 0 0 0 0 0 1 2 2 2 1 0 0 0 2 3 3
7 8 8 7 5 4 4 4 4 4 4 4 2 1 0 0 1 1 0 0 0 0 0 0 0 0 0 0 0 0 0 0 0 1 1 1 1 0 0 0 1 2 3
8 8 8 5 4 3 3 3 3 4 5 5 3 1 0 0 1 1 1 0 0 0 0 0 0 0 0 0 0 0 0 0 0 0 0 1 0 0 0 0 0 1 3

GEFSGL_con_probscp_228.txt.gz
Probability
11 11 12 11 8 7 6 5 4 2 1 1 1 1 1 1 1 1 1 2 3 4 6 7 7 7 6 4 3 4 5 6 6 5 4 3 3 2 1 0 0 0 0
13 14 15 14 12 9 7 5 4 3 3 3 3 3 3 3 3 3 3 3 4 5 5 6 7 7 6 4 3 3 4 4 5 5 4 3 3 2 1 0 0 0 0
16 17 19 19 16 11 8 6 5 5 5 5 6 6 6 6 6 6 6 6 7 7 6 6 6 6 5 3 2 2 2 3 3 3 3 3 3 3 1 1 1 0 0
18 18 19 19 17 14 11 8 6 6 7 8 9 9 9 8 8 9 9 9 9 9 7 6 5 4 3 2 1 1 1 1 1 1 1 1 2 2 2 2 2 1 0
18 18 18 17 16 16 15 11 9 8 10 12 13 13 12 10 9 9 9 9 9 8 7 6 5 4 2 1 0 0 0 0 0 0 0 0 1 1 2 3 3 2 1
18 19 20 19 17 17 16 13 9 9 12 16 16 15 14 12 9 7 7 7 8 8 7 6 6 4 2 0 0 0 0 0 0 0 0 0 0 0 1 2 2 2 1
18 21 24 24 22 20 18 13 10 10 13 15 15 15 14 12 8 5 5 7 9 9 8 8 6 4 1 0 0 0 0 0 0 0 0 0 0 0 0 1 1 1 0
22 23 27 29 27 24 21 16 13 12 13 13 14 14 13 11 7 4 4 7 10 11 10 8 6 3 1 0 0 0 0 0 0 0 0 0 0 0 0 0 0 0 0
27 28 30 32 31 28 24 20 16 13 12 12 12 13 12 10 6 4 4 6 8 9 8 6 3 1 0 0 0 0 0 0 1 1 1 0 0 0 0 0 0 0 0
28 29 31 33 32 28 25 22 17 14 11 10 10 10 10 9 7 5 5 6 7 7 6 5 2 0 0 0 0 0 0 0 1 1 1 1 1 1 1 1 1 1 0
23 25 28 29 27 24 23 22 19 15 12 8 8 9 10 9 8 6 4 6 7 7 5 4 2 1 0 0 0 0 0 0 0 1 1 1 2 2 2 1 2 2 1
20 20 22 22 20 20 21 21 19 16 13 10 9 10 10 8 7 6 3 3 5 5 4 3 2 1 0 0 0 0 0 0 0 0 0 1 1 2 2 1 2 2 2
18 18 18 17 16 17 18 19 18 17 16 13 11 10 9 7 5 4 2 1 2 3 3 3 2 1 0 0 0 0 0 0 0 0 0 0 1 1 1 2 2 1 1
16 17 17 15 14 14 15 17 16 16 15 13 10 9 7 5 4 3 2 1 0 1 2 2 1 0 0 0 0 0 0 0 0 0 0 0 1 0 0 1 2 1 1
14 15 15 14 12 12 13 15 14 12 11 10 8 6 5 4 3 3 2 1 0 0 1 1 0 0 1 1 1 1 0 0 0 0 0 0 1 1 0 0 1 2 2
14 14 14 14 13 14 15 15 12 9 7 6 6 5 4 4 3 1 1 0 0 0 0 0 0 0 1 1 2 1 1 1 1 0 1 1 1 1 0 0 1 2 3
15 15 15 15 18 19 19 17 14 10 6 4 4 4 3 3 2 1 0 0 0 0 0 0 0 0 0 1 1 1 1 2 1 1 1 1 1 1 0 0 0 1 2
14 14 16 19 21 22 20 18 16 12 8 5 4 3 2 2 1 0 0 0 0 0 0 0 0 0 0 0 0 0 1 1 1 1 1 1 0 0 0 0 0 0 1
13 14 17 21 22 21 19 17 15 12 9 7 5 3 1 1 0 0 0 0 0 0 0 0 0 0 0 0 0 0 0 0 0 0 0 0 0 0 0 0 0 0 0
12 14 17 20 20 18 17 15 13 10 8 6 5 3 1 0 0 0 0 0 0 0 0 0 0 0 0 0 0 0 0 0 0 0 0 0 0 0 0 0 0 0 0
12 14 16 18 18 16 15 14 12 9 7 5 5 3 1 0 0 0 0 0 0 0 0 0 0 0 0 0 0 0 0 0 0 0 0 0 0 0 0 0 0 0 0
12 14 16 18 17 14 13 13 12 9 7 6 5 3 1 0 0 0 0 0 0 0 0 0 0 0 0 0 0 0 0 0 0 0 0 0 0 0 0 0 0 0 0
11 13 15 16 15 13 12 11 10 9 8 7 5 3 1 0 0 0 0 0 0 0 0 0 0 0 0 0 0 0 0 0 0 0 0 0 0 0 0 0 0 0 0
10 12 15 15 13 11 10 10 9 9 7 6 5 3 2 1 0 0 0 0 0 0 0 0 0 0 0 0 0 0 0 0 0 0 0 0 0 0 0 0 0 0 0
10 12 14 14 11 8 8 8 7 7 6 6 5 4 3 2 1 0 0 0 0 0 0 0 0 0 0 0 0 0 0 0 0 0 0 0 0 0 0 0 0 0 0
10 12 13 12 9 7 6 5 5 5 6 6 6 4 3 3 2 1 0 0 0 0 0 0 0 0 0 0 0 0 0 0 0 0 0 0 0 0 0 0 0 0 0

GEFSGL_con_probscp_234.txt.gz
Probability
11 11 10 11 13 14 16 16 15 16 17 16 14 11 10 8 9 10 10 9 8 8 8 9 11 11 11 12 12 12 12 12 12 9 7 5 4 4 4 4 4 3 3
14 13 13 14 16 17 17 16 16 17 18 17 15 13 11 9 9 10 10 9 9 9 9 10 11 11 11 11 11 11 11 11 11 9 7 6 6 6 6 5 4 4 4
19 18 17 17 18 19 19 18 18 19 20 20 20 18 14 10 10 11 10 10 11 11 10 10 10 11 11 11 10 10 10 10 10 9 7 7 6 6 6 6 5 5 5
25 23 22 22 22 22 21 20 20 20 22 22 22 21 18 14 13 13 12 12 12 12 11 9 9 10 12 12 11 11 11 11 10 9 7 5 4 5 5 4 4 5 6
31 29 28 28 28 26 23 21 21 21 20 20 21 21 20 17 14 14 15 14 14 14 12 10 10 11 12 11 10 11 12 12 11 10 8 5 4 4 3 2 2 4 5
33 31 30 30 30 29 26 25 25 23 21 19 19 21 21 17 12 11 13 15 16 15 14 12 12 12 11 10 9 8 9 10 11 11 10 7 6 4 2 0 0 1 2
31 30 29 29 31 32 31 30 31 29 26 23 22 22 21 16 9 7 9 13 16 16 15 15 15 14 13 11 9 7 7 7 9 10 9 7 6 5 2 1 0 0 0
31 30 29 29 32 34 34 33 34 34 32 29 25 24 23 17 9 5 5 9 14 15 16 17 18 16 14 13 12 10 8 7 6 6 5 4 4 3 2 1 1 1 1
33 33 32 32 34 37 37 37 37 35 34 31 28 27 26 20 10 4 4 9 13 14 17 18 18 16 13 12 12 11 10 7 4 2 2 2 1 1 1 1 1 2 3
34 34 34 34 34 36 38 40 40 37 34 31 30 28 27 21 9 2 3 9 12 14 17 17 15 13 10 9 10 10 9 7 5 3 2 2 2 2 2 2 3 3 4
33 33 33 32 31 31 35 39 40 37 34 31 28 27 25 18 8 2 3 7 11 14 16 15 12 9 6 4 6 8 7 6 6 5 4 5 5 5 5 5 5 5 6
29 29 28 28 27 27 31 33 33 33 32 29 26 24 20 14 8 3 2 3 6 11 13 12 9 5 2 1 2 4 4 4 6 7 7 7 8 7 6 7 7 7 8
26 26 25 25 24 24 24 24 24 26 27 26 24 21 17 12 9 6 3 2 3 6 8 7 5 3 1 1 0 1 2 4 5 6 7 7 7 6 5 5 7 9 9
23 24 25 24 21 19 17 17 18 21 23 25 24 21 15 11 10 9 7 5 4 4 5 4 3 2 2 2 1 2 3 4 5 5 6 6 6 6 5 5 6 8 7
22 23 23 21 19 16 14 13 14 16 17 19 20 19 14 10 8 7 7 7 7 5 4 4 4 4 4 4 4 5 5 5 5 6 7 6 4 4 5 6 6 5 5
23 23 21 20 19 17 13 12 11 10 8 8 10 11 9 6 4 4 4 5 5 4 4 4 5 5 6 6 6 6 6 6 7 7 6 5 3 3 4 5 6 5 5
23 22 20 19 19 18 16 15 12 7 4 3 3 3 3 2 2 2 2 3 3 3 3 4 5 6 7 7 6 6 6 6 7 6 5 4 3 2 3 4 5 6 6
22 21 18 18 18 19 18 17 15 10 8 8 5 2 0 0 1 1 1 2 3 3 4 5 6 6 7 7 6 6 5 5 5 5 5 4 3 3 3 3 4 4 5
23 20 17 16 16 17 16 16 16 14 13 13 10 6 3 1 1 1 1 3 4 4 4 5 6 6 6 6 6 5 3 3 3 4 5 5 3 3 2 2 2 2 2
22 17 15 15 15 14 14 14 16 17 16 15 14 11 6 4 3 3 3 4 5 5 5 4 4 4 4 4 3 2 1 1 1 1 3 3 2 2 1 1 1 1 0
15 12 11 13 14 13 12 12 14 18 18 15 14 12 8 6 6 6 5 5 6 6 4 3 3 3 3 2 1 1 0 0 0 0 1 1 1 2 2 1 0 0 0
9 9 9 11 12 11 10 10 12 16 17 15 14 11 8 7 7 7 6 6 6 6 5 4 4 3 2 1 1 1 0 0 0 0 0 0 0 1 2 2 1 0 0
9 9 8 9 10 9 8 8 11 14 15 14 12 11 10 9 9 8 7 6 6 6 6 6 5 4 3 1 0 0 0 0 0 0 0 0 0 0 1 2 1 0 0
9 8 7 8 10 9 7 8 10 13 13 12 11 12 12 11 10 9 8 7 6 6 5 5 4 3 3 1 0 0 0 0 0 0 0 0 0 0 0 1 1 0 0
7 7 7 8 11 11 9 9 11 12 11 10 10 10 11 11 10 9 9 8 6 5 4 3 3 3 3 3 2 1 0 0 0 0 0 0 0 0 0 0 0 0 0
6 6 7 9 12 12 10 10 12 12 9 8 8 8 9 10 9 9 9 9 6 5 4 3 3 3 4 4 4 2 1 0 0 0 0 0 0 0 1 1 1 0 0

GEFSGL_con_probscp_240.txt.gz
Probability
27 24 22 24 24 22 22 23 24 26 28 29 30 30 28 27 26 23 20 20 21 21 19 19 20 19 19 19 18 17 16 16 17 16 15 14 13 11 7 4 3 3 3
29 27 26 28 28 27 26 27 26 26 29 31 31 31 29 27 26 23 20 19 21 21 20 20 21 21 21 20 18 17 17 18 18 16 14 13 13 12 9 5 4 3 3
32 31 33 35 36 34 33 32 30 29 31 33 33 33 31 28 26 25 22 21 22 21 20 21 22 25 25 23 20 19 18 18 18 16 12 11 12 12 11 8 6 5 3
34 35 37 40 41 39 36 34 33 33 33 33 33 34 33 31 31 29 25 24 24 24 23 23 24 26 26 23 22 21 20 19 18 16 13 12 12 11 10 9 7 6 4
39 40 40 42 42 39 35 33 32 32 33 33 34 34 34 32 30 29 25 23 25 26 26 24 23 23 20 18 19 20 19 17 16 16 15 14 12 10 9 7 6 5 4
47 46 45 44 42 38 34 31 31 32 32 33 33 34 33 29 24 21 20 21 24 25 25 24 22 18 15 14 14 15 14 13 13 14 15 14 12 10 9 7 7 5 3
51 49 47 46 44 42 38 36 35 36 36 34 33 34 33 28 19 13 15 20 23 24 24 23 20 17 14 13 12 12 11 9 10 12 14 14 13 12 9 8 7 5 4
48 47 47 46 46 46 43 41 40 41 41 39 37 36 34 28 19 11 11 17 22 23 24 22 20 17 15 13 12 11 11 10 9 10 11 12 12 11 9 6 6 4 3
46 46 47 47 48 47 45 43 43 45 46 44 40 38 37 31 21 11 10 15 20 21 22 21 19 17 15 13 12 12 12 12 10 9 8 8 9 8 5 5 5 4 2
47 47 48 49 50 49 47 46 47 48 48 45 40 39 40 35 23 13 12 18 21 20 21 20 18 15 11 10 10 12 12 12 11 10 8 8 8 6 4 5 6 5 3
47 49 50 50 49 48 50 50 49 49 49 45 41 39 40 35 23 12 11 17 21 20 19 19 16 10 6 5 6 8 9 10 10 11 11 11 10 9 6 5 6 6 5
49 51 51 51 47 46 48 47 44 44 43 41 38 35 35 32 21 10 7 9 14 16 17 15 11 6 3 2 2 4 6 7 8 10 11 11 12 12 11 7 6 7 7
51 50 50 49 45 43 42 38 35 35 34 33 32 31 32 30 23 13 6 4 5 9 11 9 6 3 2 1 2 3 5 6 7 7 8 10 11 13 14 11 8 8 8
47 46 44 42 39 36 35 32 30 30 29 28 28 30 30 28 24 17 11 6 4 4 5 5 4 3 2 2 3 4 6 7 7 8 9 11 11 12 14 14 12 10 9
41 40 37 34 31 29 28 27 26 26 24 22 22 25 24 22 19 15 11 8 5 4 3 4 4 4 3 4 5 6 8 9 9 10 12 12 11 10 11 12 11 9 8
37 35 32 30 28 26 25 24 21 19 16 12 12 14 15 13 9 6 6 5 3 3 3 4 5 5 4 4 6 7 9 10 10 11 11 11 10 8 7 7 7 5 5
34 31 29 30 29 27 24 23 21 18 13 9 6 6 7 5 2 1 1 1 1 2 3 4 6 7 6 6 6 8 8 10 11 11 10 9 8 8 6 4 3 3 3
29 27 27 29 30 28 26 25 24 22 20 16 10 4 2 1 0 0 0 0 1 3 4 6 8 8 8 8 7 7 8 10 12 12 10 8 7 7 6 4 3 2 2
26 26 27 28 29 27 26 25 25 24 23 21 17 11 4 1 0 0 0 1 3 4 5 7 9 10 10 9 8 7 8 8 10 10 8 7 6 6 5 4 4 3 2
26 24 25 26 26 25 24 24 24 23 21 19 18 16 9 4 3 3 2 2 3 6 7 7 9 10 9 9 8 7 7 6 6 6 6 5 5 3 3 3 3 3 4
23 21 20 22 22 21 21 21 21 20 17 14 14 14 11 8 8 8 6 5 5 6 7 7 8 8 8 7 7 7 7 6 5 4 3 3 2 1 1 1 1 2 3
18 16 17 18 17 16 15 16 16 15 13 11 11 11 10 10 10 9 9 9 8 8 7 7 7 7 7 6 6 7 8 7 6 3 1 1 0 0 0 0 0 1 2
10 11 13 15 14 12 11 12 12 12 11 11 11 11 10 10 10 10 11 13 12 11 9 8 7 7 7 7 6 7 7 6 5 4 1 0 0 0 0 0 0 0 1
5 6 8 11 12 11 10 10 10 11 12 12 13 12 11 11 11 12 13 14 15 14 13 11 9 9 8 7 6 6 6 5 4 4 2 1 0 0 0 0 0 0 0
3 4 5 7 8 9 10 10 10 11 12 13 13 12 12 13 13 13 13 14 14 14 14 13 12 10 8 7 5 5 5 3 3 3 3 1 0 0 0 0 0 0 0
3 4 4 4 5 8 9 9 10 11 11 12 12 11 12 14 14 13 12 12 12 12 12 13 12 9 8 6 6 5 4 2 1 2 2 2 1 0 0 0 0 0 0

GEFSGL_con_probscp_246.txt.gz
Probability
15 17 16 15 13 9 6 4 4 5 5 5 6 7 7 7 6 8 9 7 7 8 8 8 9 9 8 7 6 6 6 6 5 4 4 5 4 3 3 3 2 1 0
17 17 17 16 14 11 7 6 5 6 6 6 7 9 9 8 7 8 8 8 7 7 6 6 7 8 8 7 6 6 6 6 5 4 4 4 4 3 3 3 2 1 0
18 19 19 18 16 13 11 10 10 10 9 9 11 13 13 11 9 8 8 7 7 7 6 5 6 7 7 6 6 6 6 6 6 5 4 4 3 3 3 3 2 1 0
21 21 21 19 18 16 15 16 16 17 16 16 17 19 17 13 10 8 7 7 7 7 6 5 6 6 6 5 4 4 5 6 6 6 5 4 3 3 3 3 3 1 0
26 25 23 23 22 22 22 22 22 22 22 22 23 23 20 15 12 10 9 9 8 6 5 4 4 5 5 4 3 3 4 6 6 6 6 5 4 4 3 3 3 2 1
27 26 25 25 25 26 27 27 25 24 23 23 24 23 21 17 14 12 12 11 10 8 6 5 5 5 5 4 3 3 4 5 7 7 7 6 6 5 4 3 3 3 3
27 25 25 25 25 26 27 26 24 22 22 22 21 20 19 17 15 12 11 13 13 12 10 8 8 8 7 5 3 4 4 6 8 9 8 7 7 6 4 3 3 3 3
29 27 27 27 25 24 24 22 20 20 22 21 19 18 18 16 14 10 8 12 15 14 13 10 10 10 9 6 5 5 6 6 7 8 8 7 6 5 4 4 3 3 3
31 30 29 28 26 24 22 20 19 19 20 20 19 18 18 16 12 6 4 10 14 15 13 11 10 10 9 7 6 6 6 6 5 4 4 5 3 2 3 5 5 4 2
31 30 29 27 26 25 22 19 18 17 18 19 19 18 16 14 10 3 2 8 13 14 13 12 11 9 7 6 6 6 6 5 4 2 2 2 1 0 2 5 7 6 3
30 30 29 27 25 22 20 19 18 17 18 18 18 17 16 15 10 3 1 5 10 11 11 12 12 9 5 3 3 5 5 4 3 3 3 2 2 2 3 5 6 5 4
29 29 28 27 24 19 17 17 17 17 18 18 18 17 17 16 11 4 1 2 4 6 8 9 8 5 2 1 1 2 2 2 3 3 3 4 4 5 4 4 3 3 3
28 28 27 26 24 20 17 15 15 16 17 17 17 17 17 17 13 6 1 0 1 2 3 4 3 2 1 0 0 0 0 1 3 3 3 4 6 6 5 3 1 1 1
28 27 26 26 25 22 18 15 14 14 14 14 16 17 17 17 15 10 4 1 0 0 1 1 1 0 0 0 0 0 0 2 3 3 4 5 6 6 6 4 2 1 1
25 24 24 24 23 20 17 15 13 12 11 11 11 13 14 15 13 10 6 2 0 0 0 0 0 0 0 0 1 1 1 2 3 3 4 5 6 6 6 5 3 2 2
19 18 18 19 19 18 17 15 12 10 8 6 6 7 9 9 8 5 3 2 0 0 0 0 0 0 0 0 1 2 2 3 3 3 4 5 6 5 4 4 3 3 3
15 15 15 16 18 19 19 17 15 11 7 4 3 3 4 4 2 1 0 0 0 0 0 0 0 0 0 0 1 2 3 3 3 4 4 5 5 4 3 3 3 3 3
14 14 15 16 17 19 20 19 18 15 12 8 4 2 1 1 0 0 0 0 0 0 0 0 0 0 0 0 0 1 3 3 3 3 4 4 4 3 3 3 3 3 3
12 12 12 12 14 16 18 18 17 16 14 12 9 4 1 1 1 1 0 0 0 1 1 0 0 1 1 0 0 1 3 4 3 3 3 3 3 3 3 3 3 3 2
7 7 6 7 9 12 14 15 14 13 13 12 10 6 3 2 2 2 1 1 1 2 2 1 1 1 1 1 1 2 4 5 4 4 3 3 3 3 3 3 3 2 1
3 3 2 3 6 9 11 11 11 11 10 9 8 6 4 3 4 4 3 3 3 3 3 3 3 3 2 1 1 2 4 5 5 5 4 3 3 3 3 3 3 1 0
1 1 0 1 4 6 8 9 9 8 7 6 5 5 4 4 5 6 6 5 4 3 3 3 4 4 4 3 3 3 4 5 6 6 5 4 4 3 3 3 2 1 0
0 0 0 1 2 2 4 6 6 4 3 3 3 3 3 3 4 6 7 6 5 4 4 3 3 4 4 3 3 4 5 6 6 6 6 6 5 4 3 2 1 0 0
0 0 0 0 1 1 2 3 3 2 1 1 1 1 2 2 3 4 6 6 5 5 5 4 4 4 4 4 4 5 6 6 6 6 6 6 6 5 3 1 0 0 0
0 0 0 0 1 2 3 3 3 1 0 0 0 0 1 1 1 2 3 4 4 5 6 6 6 5 5 6 7 7 6 5 5 5 6 6 5 4 3 1 0 0 0
0 0 0 0 1 3 3 3 3 2 1 0 0 0 0 0 0 1 2 3 3 4 6 7 6 6 6 7 9 7 5 3 3 4 5 5 5 4 3 2 1 0 0

GEFSGL_con_probscp_252.txt.gz
Probability
8 8 6 5 4 2 2 2 2 3 4 7 7 5 2 1 0 0 0 1 3 5 5 5 6 7 7 8 9 9 9 9 7 5 4 4 4 4 4 4 4 3 3
8 8 7 6 4 3 2 2 2 3 5 7 8 6 4 3 2 2 2 3 4 5 6 6 7 9 9 9 9 9 9 8 7 5 5 6 6 6 6 5 4 3 3
9 9 9 7 6 5 4 4 4 4 6 8 7 7 7 6 7 7 7 7 8 9 9 9 10 11 11 11 11 11 9 8 7 6 6 7 6 6 6 6 4 3 3
12 11 10 10 9 8 7 6 5 6 8 8 8 9 10 11 12 12 12 11 12 13 13 13 13 13 13 13 12 11 9 7 7 7 7 6 6 5 5 5 5 4 4
15 12 10 11 12 11 9 7 7 8 9 10 10 11 13 14 15 15 14 14 15 15 14 14 13 12 11 11 10 8 7 7 7 8 7 6 6 6 5 5 5 5 4
18 14 11 12 13 13 12 10 9 10 12 12 13 14 15 15 14 13 14 15 16 15 15 14 12 10 8 7 6 5 5 5 7 8 7 6 7 7 6 5 5 5 5
18 17 16 16 16 17 16 14 13 13 13 14 15 16 16 15 12 9 9 13 14 14 15 15 13 10 8 8 6 4 3 3 4 6 6 6 6 7 7 5 4 4 5
18 19 20 21 21 22 20 17 15 14 13 13 15 16 16 14 10 6 5 8 10 11 12 13 13 12 11 11 9 6 4 3 3 4 4 4 5 6 5 4 2 3 5
19 19 20 22 22 23 20 16 14 13 12 12 14 15 15 13 9 4 3 6 8 7 7 8 10 10 10 8 9 9 8 7 6 4 3 3 3 3 3 3 2 3 4
21 20 20 20 20 20 18 14 12 12 12 12 12 12 12 11 8 4 4 7 9 8 6 6 6 7 5 3 6 9 9 9 8 6 4 3 2 2 2 3 3 3 4
21 20 20 19 19 19 17 14 13 12 12 11 11 11 11 11 9 5 4 7 9 10 8 6 6 4 2 1 3 6 7 6 6 6 5 4 3 2 2 2 3 4 5
20 19 18 18 18 19 19 17 15 13 11 11 11 11 11 11 9 6 4 4 7 9 8 7 4 2 0 0 1 2 2 2 3 5 5 4 3 3 3 3 3 4 5
17 16 16 16 17 18 18 17 15 12 11 10 10 11 11 10 10 8 5 3 4 5 6 5 3 1 0 0 0 0 0 1 2 3 3 3 3 3 3 3 3 3 4
17 16 16 15 15 16 16 14 12 11 11 11 11 11 10 10 11 10 8 5 4 4 5 4 2 0 0 0 0 0 0 1 1 1 1 2 3 3 3 3 3 3 3
17 16 16 15 15 15 12 10 9 9 10 10 10 11 10 10 10 10 8 7 6 5 5 3 1 0 0 0 0 0 0 0 0 0 0 1 1 2 3 3 3 3 3
14 14 14 14 14 12 10 7 6 6 6 6 7 7 8 8 7 6 4 4 4 3 3 3 2 1 0 0 0 0 0 0 0 0 0 0 0 1 3 3 3 3 3
10 10 10 10 10 9 8 6 5 4 3 3 2 2 3 4 3 2 1 1 1 1 1 3 4 3 1 1 0 0 0 0 0 0 0 0 0 1 2 3 3 3 3
6 6 6 7 7 7 7 7 7 6 5 4 2 1 1 1 1 0 0 0 0 0 1 2 3 3 3 2 1 1 1 1 1 1 0 0 0 1 2 3 3 3 3
4 4 4 5 5 5 6 7 8 8 7 6 4 2 0 0 0 0 0 0 0 0 0 1 2 2 3 3 3 2 2 2 2 2 1 0 0 0 1 2 3 3 3
3 3 2 2 2 3 4 5 6 8 8 8 6 4 1 0 0 1 1 1 1 1 1 2 2 3 3 3 3 3 3 2 2 2 1 1 1 0 0 1 3 3 3
3 2 1 0 0 1 1 2 3 5 6 7 7 5 2 0 0 1 2 2 2 2 2 3 3 3 3 3 3 3 2 1 1 1 1 2 2 1 1 1 2 3 3
2 1 0 0 0 0 0 0 1 1 2 3 4 3 1 0 0 1 1 1 1 1 2 3 3 3 4 4 4 4 3 2 2 2 3 4 3 3 2 1 2 3 3
1 0 0 0 0 0 0 0 0 0 0 0 1 2 1 0 0 0 0 0 0 0 1 1 2 3 4 5 6 6 5 5 5 5 5 5 4 3 3 3 3 4 4
0 0 0 0 0 0 0 0 0 0 0 0 0 1 1 0 0 0 0 0 0 0 0 0 1 2 4 6 7 6 5 5 5 5 5 4 3 3 4 5 6 6 6
0 0 0 0 0 0 0 0 0 0 0 0 0 0 1 1 0 0 0 0 0 0 0 0 0 1 2 3 4 3 3 2 2 2 3 3 2 3 4 6 6 6 6
0 0 0 0 0 0 0 0 0 0 0 0 0 1 2 2 1 0 0 0 0 0 0 0 0 0 0 1 1 1 1 0 0 0 1 1 1 2 4 6 6 6 6

GEFSGL_con_probscp_258.txt.gz
Probability
17 17 17 17 17 15 11 10 11 11 11 11 13 13 12 11 13 14 16 18 17 14 14 15 15 17 19 19 18 19 18 15 12 12 13 16 19 17 14 15 14 12 11
17 18 18 19 18 16 14 13 13 13 12 13 13 12 11 12 14 15 15 16 17 16 17 17 16 18 19 20 19 19 19 16 13 11 11 15 18 17 15 14 13 11 11
19 20 21 20 19 17 16 16 16 16 15 14 12 10 10 12 14 15 14 16 19 21 21 20 18 17 18 19 20 20 19 18 15 12 10 14 16 17 15 12 10 11 11
24 24 24 22 20 18 17 17 18 18 16 14 11 9 9 10 12 14 15 18 21 23 23 22 20 18 17 17 19 20 20 20 19 16 12 13 15 15 14 10 9 12 14
28 26 25 24 21 18 18 19 19 18 17 15 13 11 10 10 12 15 18 19 19 20 21 22 21 20 17 16 16 18 20 21 21 18 15 14 16 18 16 13 12 15 16
31 28 25 22 20 19 20 21 21 22 21 19 17 15 15 13 12 12 15 16 16 16 18 20 20 18 16 15 13 13 15 17 19 19 18 18 21 23 22 21 19 19 19
35 31 24 21 20 21 23 24 25 25 25 23 21 21 20 17 11 7 8 13 15 16 17 19 18 17 17 17 14 12 12 14 17 20 21 23 26 27 28 26 25 24 23
35 32 27 23 24 25 27 28 29 29 27 25 24 25 25 20 11 5 5 10 14 16 18 19 19 20 21 20 19 18 19 20 18 18 21 24 25 26 27 26 25 24 23
35 33 29 27 28 30 32 34 35 33 31 29 28 28 28 22 13 6 4 9 14 17 19 20 21 22 21 21 23 26 28 26 20 15 15 17 17 17 20 22 22 21 20
35 33 31 31 33 35 36 37 38 36 34 33 33 31 28 24 15 6 5 11 16 19 21 21 19 17 15 15 20 26 29 28 24 20 16 15 16 16 17 20 21 20 18
34 31 31 34 35 35 35 37 37 36 34 33 31 27 25 21 15 7 6 11 17 20 20 20 17 12 7 6 12 20 22 23 27 27 24 23 22 22 22 22 23 24 23
30 28 27 30 32 31 31 33 34 34 32 30 26 24 22 19 14 9 5 6 11 15 17 16 14 9 3 1 5 9 10 13 22 26 25 23 22 23 24 24 25 26 28
27 25 23 24 27 28 28 28 29 31 30 27 25 24 23 21 17 12 7 4 5 9 12 11 9 5 2 1 2 2 3 8 14 18 19 19 19 19 21 21 21 22 23
24 23 23 23 25 26 26 25 25 26 26 25 24 24 24 21 18 15 11 9 7 7 9 9 8 6 5 5 5 4 5 7 9 12 14 17 18 18 17 15 14 14 13
22 23 23 22 22 23 24 22 20 20 20 19 20 21 20 17 14 12 11 11 10 8 8 11 12 11 11 12 14 13 12 9 7 7 10 12 14 14 13 13 12 10 8
22 23 22 20 20 22 23 21 17 14 12 11 12 14 13 10 7 6 6 7 7 6 8 13 16 16 17 19 19 19 16 12 9 8 8 9 9 10 11 12 13 10 7
22 23 23 21 21 23 22 20 18 14 9 6 5 6 6 4 2 2 2 2 2 3 7 11 16 20 22 22 21 20 17 15 13 11 10 9 8 9 10 11 11 8 7
22 23 23 21 20 20 19 18 17 16 12 7 4 2 2 1 0 0 0 0 1 2 6 9 13 17 20 21 21 20 18 17 16 14 11 9 8 8 9 9 9 6 5
20 21 21 20 18 17 16 16 15 14 11 9 7 4 2 1 1 1 0 1 3 5 7 8 9 11 14 16 16 17 18 18 17 15 11 9 9 9 9 9 7 6 5
17 17 17 17 17 17 16 15 13 11 8 7 7 5 4 3 3 3 3 3 4 6 8 9 8 8 9 11 12 13 14 16 16 15 12 11 10 11 11 9 7 6 6
12 10 10 12 13 14 13 12 10 9 8 7 6 4 3 3 4 5 5 4 4 6 8 9 8 7 7 9 9 9 9 9 10 11 11 11 11 11 10 9 8 7 7
7 5 4 5 6 7 7 6 5 5 5 5 4 3 2 2 3 4 5 5 5 6 7 7 6 6 6 5 4 3 3 3 3 4 6 8 10 10 9 8 8 7 7
2 1 1 1 1 1 1 1 1 1 1 2 1 1 0 1 1 2 4 5 6 6 6 5 4 4 3 2 1 0 0 0 0 0 1 3 7 8 7 6 6 6 6
0 0 0 0 0 0 0 0 0 0 0 0 0 0 0 0 0 1 2 4 5 5 5 4 3 2 1 0 0 0 0 0 0 0 0 1 2 4 4 4 4 4 4
0 0 0 0 0 0 0 0 0 0 0 0 0 0 0 0 0 0 1 2 3 3 2 2 1 0 0 0 0 0 0 0 0 0 0 0 0 1 1 2 2 1 1
0 0 0 0 0 0 0 0 0 0 0 0 0 0 0 0 0 1 1 1 1 1 0 0 0 0 0 0 0 0 0 0 0 0 0 0 0 0 0 1 1 0 0

GEFSGL_con_probscp_264.txt.gz
Probability
39 38 33 29 26 24 24 25 25 22 19 19 21 21 20 19 17 15 15 15 17 19 19 18 17 16 14 14 16 18 19 20 19 18 19 20 20 19 16 16 13 10 9
36 37 35 32 29 27 26 26 25 23 21 21 23 24 22 21 21 21 19 18 19 21 21 21 20 20 19 19 21 22 22 22 21 20 21 21 22 20 19 18 14 10 9
36 38 39 37 35 32 30 28 27 26 26 26 28 29 28 27 28 28 26 23 23 24 25 24 23 24 26 25 25 24 24 23 22 22 21 22 22 23 24 22 17 13 12
42 43 44 43 41 39 35 32 31 31 31 31 31 31 31 32 32 31 28 26 24 24 24 24 24 26 28 26 23 23 23 23 23 23 22 21 22 25 27 26 22 19 17
49 49 49 47 45 42 37 35 36 35 33 32 32 32 32 30 28 28 28 25 22 21 21 21 22 23 23 21 18 18 20 22 23 23 22 22 23 25 27 27 26 24 22
52 51 50 48 46 43 39 38 40 38 34 33 33 33 32 26 20 20 24 23 20 18 18 19 19 18 17 15 13 12 13 15 19 22 22 25 28 28 28 27 26 25 23
51 50 50 49 47 44 41 41 43 42 38 36 37 37 36 27 16 12 15 20 19 16 17 18 16 14 14 14 13 10 9 10 12 17 22 27 31 33 31 28 26 24 24
52 51 52 52 50 46 44 43 44 44 42 40 41 43 42 31 16 8 10 17 20 18 17 17 15 13 13 14 15 15 15 13 12 13 19 24 27 29 30 30 27 25 24
54 53 52 53 52 49 47 46 45 45 44 43 43 45 45 35 18 7 9 16 21 20 18 16 13 12 11 12 16 21 23 22 19 16 17 19 19 19 21 25 27 25 23
53 52 52 53 53 51 50 48 47 46 44 43 44 44 44 35 20 8 8 16 20 20 19 16 11 9 9 9 14 20 24 24 23 21 18 17 16 14 15 20 26 25 22
52 51 50 51 51 51 50 49 47 45 42 43 43 43 41 33 19 7 6 12 17 21 21 17 12 7 5 4 8 14 18 19 20 20 20 21 20 20 19 22 26 27 26
47 47 47 48 48 47 47 47 46 44 42 41 42 41 38 30 18 7 3 5 10 17 19 15 9 5 2 2 4 8 9 11 15 17 19 22 25 26 26 27 29 31 32
42 43 43 43 43 43 43 43 42 40 38 37 37 37 35 29 20 10 3 0 3 10 12 8 4 2 1 1 2 3 5 8 12 16 18 22 26 28 27 28 30 31 32
39 39 38 37 37 39 39 37 33 32 31 30 30 30 29 26 21 14 7 3 4 7 8 6 4 4 4 4 5 6 8 10 12 15 19 22 25 26 25 25 27 28 28
34 32 31 31 33 34 33 27 22 21 20 20 21 23 23 20 16 13 10 8 8 9 10 10 11 10 9 9 10 13 15 15 15 16 19 22 23 23 22 21 21 23 22
29 26 24 25 27 27 24 19 14 12 11 10 12 15 16 12 8 7 7 8 8 9 11 14 15 14 13 13 15 19 21 20 19 19 21 21 21 20 18 16 16 16 16
25 22 19 19 19 18 17 15 12 10 8 6 5 7 8 5 2 1 2 3 4 5 10 15 17 16 15 16 17 20 22 21 20 20 20 20 18 15 14 14 13 13 13
18 17 15 14 13 14 14 12 12 12 11 8 5 3 2 1 0 0 1 1 2 4 9 13 15 16 16 17 18 20 21 20 19 19 20 19 16 13 12 12 12 11 11
14 13 12 13 13 13 12 10 10 12 12 11 7 4 1 0 0 0 1 2 3 5 8 11 12 13 15 16 17 18 19 18 18 20 20 19 16 14 11 10 9 8 8
13 11 10 12 12 11 9 9 9 11 11 8 6 4 2 1 0 1 2 4 4 6 8 10 11 12 13 14 15 16 15 13 13 16 17 15 13 12 10 8 6 6 6
10 8 8 9 9 7 6 7 8 9 7 4 2 1 1 1 1 1 3 5 5 5 5 7 9 10 11 11 13 13 12 9 8 10 11 10 9 9 8 8 7 5 4
8 7 6 5 5 4 4 5 6 6 4 1 0 0 0 0 0 0 2 4 5 4 3 4 6 7 7 8 9 10 8 6 4 4 5 6 6 7 7 7 7 5 4
6 6 6 5 4 4 5 5 5 4 2 1 0 0 0 0 0 0 1 2 4 4 4 5 5 4 4 4 5 5 5 3 2 2 2 3 3 3 4 4 4 4 4
4 4 5 5 5 6 6 5 3 1 1 0 0 0 0 1 1 1 1 2 4 4 4 4 3 1 1 1 2 3 3 1 0 0 1 1 0 0 1 1 2 3 3
3 4 5 6 6 5 6 4 2 0 0 0 0 0 2 3 4 4 3 3 3 3 2 1 1 0 0 0 1 2 2 1 0 0 0 0 0 0 0 0 1 1 2
3 4 6 6 6 5 5 3 1 0 0 0 0 1 3 5 5 4 4 3 2 1 0 0 0 0 0 0 1 1 1 0 0 0 0 0 0 0 0 0 0 0 1

GEFSGL_con_probscp_270.txt.gz
Probability
16 16 16 16 16 13 10 8 6 3 1 2 2 2 2 2 3 3 2 1 0 0 0 0 0 1 1 1 1 1 1 1 1 1 1 2 3 3 3 3 3 2 1
17 16 16 17 17 17 17 14 9 5 3 2 3 3 3 3 4 3 3 2 1 1 1 1 1 2 2 2 3 3 3 3 3 3 3 3 3 3 3 4 4 3 2
19 17 16 17 19 22 22 20 16 11 8 7 6 5 4 5 5 4 3 3 3 3 3 3 3 3 3 4 4 5 6 5 5 5 5 5 4 3 4 4 5 5 5
22 19 16 16 19 21 23 21 19 18 16 14 12 9 7 6 6 5 4 4 4 4 5 5 5 5 5 6 6 7 7 6 6 6 6 6 5 4 4 4 4 5 6
24 22 18 16 16 17 19 20 21 21 21 20 18 16 13 11 9 7 6 6 6 5 6 7 8 8 8 8 8 7 7 6 6 6 7 7 6 5 4 4 4 5 5
24 23 20 17 15 14 15 18 21 22 23 23 23 22 20 18 13 8 7 10 10 8 7 9 10 10 9 7 6 6 6 6 6 7 8 9 9 8 6 6 7 8 8
23 22 19 16 15 15 17 20 21 22 24 25 26 26 25 22 15 8 7 12 14 11 10 10 11 10 7 7 6 6 5 4 4 6 9 10 11 11 9 9 10 11 12
22 21 19 18 17 18 21 22 23 23 25 27 28 28 27 24 18 10 8 12 15 13 11 11 11 9 7 7 7 6 4 2 2 4 6 8 10 11 12 12 12 12 12
21 22 23 21 20 20 21 22 22 24 26 28 29 29 27 25 20 12 8 13 16 15 13 12 11 9 6 5 5 5 4 3 3 3 3 4 5 7 10 12 13 12 11
20 22 23 21 19 19 18 18 19 21 23 25 27 28 27 25 22 14 9 14 18 17 16 14 11 8 5 2 3 3 3 4 5 5 3 2 3 4 5 8 11 12 12
19 20 20 19 18 18 18 17 18 19 20 22 24 25 25 24 22 14 9 12 17 18 17 14 10 6 2 1 1 2 2 3 5 6 5 4 5 5 4 5 7 9 10
17 17 17 18 19 20 19 18 18 19 19 20 20 19 19 19 18 13 6 7 13 15 15 13 8 3 0 0 0 1 1 2 5 6 6 6 7 7 7 6 5 6 8
16 15 15 16 17 18 18 17 16 15 15 15 14 12 10 11 12 9 3 2 6 9 10 8 5 1 0 0 0 0 1 2 4 5 6 5 5 6 7 8 7 7 7
16 14 13 13 13 14 14 13 13 12 12 12 10 8 7 7 8 6 3 1 2 4 5 3 1 0 0 0 0 0 1 2 3 4 4 3 3 3 4 5 6 7 8
16 14 11 11 12 12 12 11 11 11 11 10 9 8 7 7 6 5 3 2 2 2 2 1 1 0 0 0 0 0 1 2 3 3 3 2 1 1 1 2 3 4 5
13 11 9 9 10 11 11 10 10 9 7 6 5 6 5 5 3 2 2 2 1 1 2 3 2 1 1 1 1 1 1 3 3 3 2 1 0 0 0 0 0 1 1
9 9 7 6 7 8 9 9 9 7 5 3 2 2 2 1 1 0 0 1 0 1 3 4 4 3 3 2 2 2 3 3 3 2 1 0 0 0 0 0 0 0 0
7 7 6 4 4 6 7 7 8 7 5 4 2 1 0 0 0 0 0 0 0 1 2 3 3 3 3 3 3 3 3 2 1 1 0 0 0 0 0 0 0 0 0
6 6 6 4 4 4 4 5 6 6 5 4 3 1 0 0 0 0 0 0 0 0 1 1 1 2 2 2 2 2 2 1 0 0 0 1 1 1 1 0 0 0 0
5 6 6 5 4 3 3 3 4 4 3 2 2 1 0 0 0 0 0 0 0 0 0 0 0 0 1 1 1 1 1 0 0 0 0 1 2 2 1 1 1 1 0
4 6 6 6 5 4 3 3 3 3 2 1 1 1 0 0 0 0 0 0 0 0 0 0 0 0 0 0 0 0 0 0 0 0 0 1 1 1 1 1 2 2 2
3 4 5 5 4 3 3 3 3 2 1 0 0 0 0 0 0 0 0 0 0 0 0 0 0 0 0 0 0 0 0 0 0 0 0 0 0 0 0 1 2 3 4
1 2 3 3 3 2 2 2 2 1 0 0 0 0 0 0 0 0 0 0 0 0 0 0 0 0 0 0 0 0 0 0 0 0 0 0 0 0 0 0 0 2 3
0 0 1 2 1 1 0 1 1 1 0 0 0 0 0 0 0 0 0 0 0 0 0 0 0 0 0 0 0 0 0 0 0 0 0 0 0 0 0 0 0 0 1
0 0 0 0 0 0 0 0 0 0 1 1 0 0 0 0 0 0 0 0 0 0 0 0 0 0 0 0 0 0 0 0 0 0 0 0 0 0 0 0 0 0 0
0 0 0 0 0 0 0 0 0 1 2 2 1 0 0 0 0 0 0 0 0 0 0 0 0 0 0 0 0 0 0 0 0 0 0 0 0 0 0 0 0 0 0

GEFSGL_con_probscp_276.txt.gz
Probability
8 9 11 13 14 13 11 7 5 4 4 3 3 3 4 5 6 6 4 3 3 3 3 3 4 4 4 4 3 3 3 3 3 3 3 3 3 3 3 2 2 2 2
10 10 12 14 15 15 14 10 7 6 5 4 3 3 3 4 5 6 4 3 3 3 3 3 4 5 5 4 4 3 3 3 3 3 3 4 3 3 2 2 1 1 1
12 12 13 14 15 15 14 13 11 10 9 8 7 6 5 4 5 6 5 4 3 3 3 3 4 6 6 6 5 4 3 3 4 4 4 4 4 3 2 2 3 3 2
12 12 12 12 12 12 12 12 12 13 13 13 13 11 8 7 7 8 8 7 6 5 4 4 4 5 6 7 8 8 7 6 6 6 5 5 5 4 4 4 5 5 5
11 10 10 10 11 11 12 12 12 14 14 14 15 16 14 11 10 10 12 13 11 9 7 6 5 5 6 7 9 10 11 10 10 9 8 7 8 8 7 7 7 7 7
11 10 10 12 14 14 14 14 14 14 13 12 14 17 17 15 12 10 12 16 18 16 13 10 7 6 7 7 7 7 9 10 10 10 10 9 10 11 11 10 10 9 9
13 13 13 15 18 19 18 16 15 14 13 13 14 16 17 16 11 7 7 14 20 21 19 16 13 10 8 8 7 6 7 7 7 9 10 10 11 13 14 14 13 12 12
15 15 14 15 18 19 18 17 16 15 14 14 13 14 14 13 11 6 5 11 19 23 22 20 19 15 11 9 10 10 9 7 5 5 7 8 9 10 12 13 13 12 12
14 13 13 13 14 15 15 15 15 15 14 13 12 12 12 12 11 7 5 11 18 21 20 19 19 17 12 9 9 10 11 9 4 2 3 3 3 4 5 8 10 10 11
12 11 11 10 10 10 12 13 13 13 13 12 11 10 11 11 10 6 5 11 17 20 20 19 17 14 10 6 6 9 10 9 6 3 1 1 1 1 2 4 6 8 9
11 11 11 10 10 9 9 10 10 10 11 10 9 8 8 9 8 4 3 8 14 18 20 20 17 12 6 2 3 6 8 7 7 5 4 3 3 4 4 5 6 7 9
10 11 11 12 11 9 8 7 6 7 7 6 5 4 4 6 6 3 2 4 9 13 17 18 15 9 3 1 1 3 3 3 5 6 6 6 6 6 6 6 6 7 7
8 8 10 11 12 10 8 6 5 4 4 3 2 1 1 2 3 2 1 1 3 6 10 11 8 4 1 0 0 0 0 1 4 6 6 6 6 6 6 6 6 6 6
6 7 8 10 11 11 9 8 6 4 3 3 2 1 1 1 1 0 1 2 2 3 5 6 4 2 1 1 1 1 1 2 4 5 5 4 4 4 4 4 4 5 5
6 6 7 9 9 9 8 7 7 5 4 4 4 3 1 0 0 0 1 2 3 3 4 5 5 5 4 5 5 4 2 1 3 4 4 3 3 3 3 3 3 4 5
6 6 7 8 7 5 5 6 6 5 4 3 3 3 2 2 1 1 0 1 1 2 2 4 6 6 8 9 9 6 3 2 3 4 3 3 3 3 3 1 1 3 4
5 6 7 7 5 3 3 4 4 4 3 2 1 1 2 2 2 1 0 0 0 0 1 3 4 5 7 9 7 5 3 3 3 3 3 3 3 3 2 1 1 2 3
4 6 6 6 4 3 3 3 4 3 3 2 1 0 1 1 1 0 0 0 0 0 1 2 3 3 3 4 4 3 3 3 3 3 3 3 3 2 1 0 0 1 1
5 5 5 4 3 3 3 3 3 3 3 3 2 1 0 0 0 0 0 0 1 1 1 1 1 1 1 1 1 2 3 3 3 3 3 3 2 1 0 0 0 0 0
5 4 4 3 3 3 3 3 3 3 3 3 3 2 0 0 0 0 0 0 1 2 2 1 0 0 1 1 0 1 3 3 3 3 3 2 1 0 0 0 0 0 0
4 3 3 3 3 4 4 3 3 3 3 3 2 1 0 0 0 0 0 0 0 1 2 2 1 1 1 1 1 1 3 3 3 3 2 1 0 0 0 0 0 0 0
3 3 3 3 4 5 5 4 3 3 3 2 1 0 0 0 0 0 0 0 0 1 2 3 3 2 1 1 1 2 2 2 2 2 1 0 0 0 0 0 0 0 0
3 3 3 3 3 3 4 4 3 2 1 1 0 0 0 0 0 0 0 0 0 0 1 2 3 2 1 0 1 1 1 1 1 1 0 0 0 0 0 0 0 0 0
1 2 2 1 1 1 1 1 1 1 0 0 0 0 0 0 0 0 0 0 0 0 0 1 2 1 0 0 0 0 0 0 0 0 0 0 0 0 0 0 0 0 0
0 1 1 0 0 0 0 0 0 0 0 0 0 0 0 0 0 0 0 0 0 0 0 0 0 0 0 0 0 0 0 0 0 0 0 0 0 0 0 0 0 0 0
0 0 0 0 0 0 0 0 0 0 0 0 0 0 0 0 0 0 0 0 0 0 0 0 0 0 0 0 0 0 0 0 0 0 0 0 0 0 0 0 0 0 0

GEFSGL_con_probscp_282.txt.gz
Probability
8 8 10 14 17 17 15 12 11 11 11 11 11 12 12 12 14 16 15 12 11 11 11 12 15 16 16 15 15 15 14 13 11 7 6 11 14 15 15 12 7 6 6
8 9 12 15 17 17 15 13 12 13 12 12 13 13 12 12 14 16 16 14 12 13 14 14 16 17 17 16 16 15 14 14 12 10 9 11 15 16 15 13 9 7 7
8 10 12 14 15 14 13 13 13 13 14 13 14 14 12 12 14 16 17 16 16 16 16 16 17 18 19 20 19 17 15 15 15 14 12 13 15 16 17 15 13 11 10
8 10 12 12 12 11 11 12 13 13 13 13 14 14 14 15 16 17 18 19 19 19 19 19 19 19 20 21 21 18 17 17 17 16 15 14 15 16 18 17 16 15 14
13 13 12 12 12 12 12 13 13 13 13 13 14 14 15 16 17 18 20 22 22 21 21 22 21 20 19 18 16 16 17 18 18 18 17 17 18 19 20 19 18 18 18
20 18 15 15 16 15 15 15 15 15 15 16 17 18 17 16 14 15 19 22 22 20 20 21 20 18 15 13 11 9 11 14 16 18 19 19 20 20 21 20 20 21 22
24 21 19 19 20 19 19 18 19 19 19 21 22 21 19 15 10 9 12 17 19 18 17 17 18 16 13 12 11 8 8 9 12 16 18 18 18 19 20 20 21 23 23
22 20 20 22 23 22 22 21 21 22 23 23 23 21 19 15 10 6 6 12 16 16 14 15 17 17 14 13 13 12 13 13 12 12 14 14 14 15 18 19 19 19 19
16 18 19 22 23 23 23 22 21 20 21 22 22 21 20 17 11 5 5 12 16 16 14 14 16 16 13 12 13 14 17 19 15 11 11 12 11 11 14 18 18 15 13
11 14 17 18 20 22 23 23 20 18 18 20 22 22 22 18 11 4 5 13 18 17 16 15 13 11 9 8 11 15 16 18 19 17 16 17 16 14 14 17 18 15 12
11 12 13 14 16 19 22 24 21 19 18 19 20 20 20 16 9 3 4 9 14 17 18 15 11 7 5 4 8 13 14 15 19 23 25 25 25 24 22 21 20 18 17
14 13 13 14 14 16 21 23 22 20 18 17 18 17 17 14 8 3 2 3 7 13 15 13 9 4 1 1 4 8 9 11 16 23 27 29 30 30 29 27 23 22 22
16 16 16 16 15 16 19 22 21 19 16 16 17 16 14 13 10 5 3 1 3 7 8 6 3 1 0 1 1 2 5 9 14 20 25 26 27 28 29 28 25 23 22
17 18 18 16 15 16 18 19 19 18 15 15 14 13 13 14 12 9 6 4 3 3 4 3 2 1 1 3 4 5 7 11 15 19 23 24 24 25 25 25 23 20 18
17 17 15 14 13 13 13 14 14 14 13 12 10 9 11 12 10 8 7 5 4 4 4 5 5 4 4 6 8 10 13 15 16 17 20 21 21 20 20 20 19 16 14
14 12 11 11 10 9 9 9 8 8 7 6 5 5 7 7 6 4 4 3 3 3 5 7 8 8 7 8 8 10 12 14 14 15 16 16 15 14 14 14 14 13 12
10 9 9 9 8 8 8 8 6 5 4 3 2 3 3 3 3 2 1 1 1 2 3 5 8 8 8 8 8 7 8 10 11 12 11 11 10 10 10 11 11 11 12
6 6 7 8 8 8 9 8 7 6 5 5 3 2 2 2 2 1 0 1 1 2 3 4 6 7 6 6 6 6 6 8 10 10 9 9 9 9 9 10 10 10 10
5 5 7 8 8 7 7 6 5 6 6 5 4 3 2 1 1 1 1 2 3 3 4 4 5 5 4 4 4 4 5 6 8 9 8 8 7 8 8 9 10 9 7
6 6 7 8 7 7 6 4 4 4 4 4 4 3 3 2 2 2 3 3 3 3 3 4 4 4 3 3 3 3 3 4 5 7 7 6 6 6 6 8 9 8 7
8 8 7 6 6 6 5 4 3 3 3 3 3 3 3 3 3 3 2 2 2 1 2 2 3 3 3 3 3 3 3 3 4 5 5 4 4 4 5 7 8 8 8
10 9 7 5 5 5 4 3 3 3 3 3 3 3 2 2 2 1 1 1 1 0 0 1 2 3 3 3 3 3 3 3 3 3 2 3 3 3 3 5 6 6 6
7 7 5 4 4 4 3 3 3 3 3 2 2 1 1 1 1 0 0 0 0 0 0 0 1 2 3 3 3 3 3 3 3 2 1 2 2 1 1 3 5 4 4
4 4 3 3 3 3 3 3 2 2 1 1 1 0 0 0 0 0 0 0 0 0 0 0 0 1 1 2 2 2 2 2 2 2 2 1 0 0 0 1 2 3 2
3 3 2 2 2 2 2 1 1 1 0 0 0 0 0 1 1 1 1 0 0 0 0 0 0 0 0 1 1 1 1 1 1 2 2 1 0 0 0 0 1 1 1
3 2 1 1 1 1 1 0 0 0 0 0 0 0 1 2 2 2 2 1 0 0 0 0 0 0 0 0 0 0 0 0 0 1 1 0 0 0 0 0 0 0 0